Observations for Trim Market St
| Time | AQI | Temp °C | Hum % | Pres Pa | CO μg/m³ | H₂S μg/m³ | NO μg/m³ | NO₂ μg/m³ | O₃ μg/m³ | SO₂ μg/m³ | PM1 μg/m³ | PM2.5 μg/m³ | PM10 μg/m³ |
|---|---|---|---|---|---|---|---|---|---|---|---|---|---|
| Saturday 22 August 2026 | |||||||||||||
| 14:04 | 2 | 23 | 40 | 65,439 | 0.11 | 0 | 1.68 | 16.37 | 66.71 | 0 | 1.43 | 4.45 | 5.92 |
| 14:03 | 2 | 23 | 40 | 65,458 | 0.03 | 0 | 1.52 | 7.9 | 71.85 | 0 | 0.71 | 4.45 | 6.72 |
| 14:02 | 2 | 23 | 40 | 65,447 | 0.08 | 0 | 1.2 | 7.04 | 69.13 | 0 | 1.43 | 5.5 | 5.92 |
| 13:59 | 2 | 22.8 | 41 | 65,464 | 0.11 | 0 | 1.63 | 12.27 | 67.83 | 0 | 1.43 | 5.46 | 5.93 |
| 13:58 | 2 | 22.7 | 42 | 65,458 | 0.2 | 0 | 1.63 | 13.03 | 61.06 | 0 | 2.14 | 5.45 | 5.94 |
| 13:57 | 2 | 22.7 | 42 | 65,454 | 0.43 | 0 | 1.63 | 27.69 | 62.84 | 0 | 2.14 | 5.44 | 6.73 |
| 13:56 | 2 | 22.6 | 42 | 65,412 | 0.82 | 0 | 1.65 | 47.34 | 58.86 | 0 | 0.71 | 4.38 | 5.94 |
| 13:55 | 2 | 22.5 | 42 | 65,418 | 0.24 | 0 | 1.7 | 12.65 | 63.58 | 0 | 0.71 | 4.37 | 4.81 |
| 13:54 | 2 | 22.5 | 42 | 65,400 | 0.31 | 0 | 1.68 | 12.74 | 63.24 | 0 | 1.43 | 4.89 | 5.15 |
| 13:52 | 2 | 22.4 | 42 | 65,376 | 0.24 | 0 | 1.75 | 31.92 | 61 | 0 | 0.71 | 3.82 | 4.21 |
| 13:51 | 2 | 22.4 | 43 | 65,378 | 0.29 | 0 | 5.18 | 28.4 | 61.54 | 0 | 0.71 | 4.87 | 5.16 |
| 13:50 | 2 | 22.3 | 43 | 65,352 | 0.46 | 0 | 8.38 | 28.48 | 61.71 | 0 | 0 | 3.82 | 4.37 |
| 13:49 | 2 | 22.3 | 43 | 65,345 | 0.83 | 0 | 4.47 | 40.68 | 59.36 | 0 | 0.71 | 3.81 | 5.16 |
| 13:45 | 2 | 22.1 | 43 | 65,315 | 0.21 | 0 | 1.79 | 10.73 | 65.11 | 0 | 0.71 | 3.8 | 5.17 |
| 13:43 | 2 | 22 | 43 | 65,299 | 0.15 | 0 | 1.75 | 22.59 | 61.11 | 0 | 0.71 | 3.79 | 5.95 |
| 13:38 | 2 | 21.9 | 44 | 65,311 | 0.17 | 0 | 1.77 | 18.62 | 62.58 | 0 | 0.71 | 4.29 | 4.4 |
| 13:35 | 2 | 21.7 | 44 | 65,234 | 0.2 | 0 | 1.68 | 9.38 | 65.2 | 0 | 0.71 | 3.75 | 4.13 |
| 13:29 | 2 | 21.3 | 45 | 65,159 | 0.17 | 0 | 1.79 | 14.94 | 62.04 | 0 | 2.14 | 6.33 | 8.3 |
| 13:28 | 2 | 21.3 | 45 | 65,155 | 0.19 | 0 | 1.79 | 19.84 | 59.55 | 0 | 1.43 | 4.25 | 5.97 |
| 13:26 | 2 | 21.2 | 45 | 65,145 | 0.23 | 0 | 1.86 | 24.43 | 58.38 | 0 | 2.85 | 6.85 | 8.3 |